2022-153B (54244 NORAD) Tracking and Keplerian Element Data

This shows tracking and keplerian element data for the satellite.

Feedback or suggestion? Click here.




ElementValue
Catalog54244
Name2022-153B
Epoch Orbit6
Epoch Day323.54767939
Epoch Year2022
RAAN126.3182
Inclination1.2332
Eccentricity0.2126087
Argument of Perigee181.8177
Mean Anonmoly115.4176
Mean Motion0.70417329
Decay Rate-1.17E-06
L11 54244U 22153B 22323.54767939 -.00000117 00000+0 00000+0 0 9992
L22 54244 1.2332 126.3182 2126087 181.8177 115.4176 0.70417329 68



Live tracking and technical data element details for 2022-153B (NORAD 54244). 2022-153B can be tracked NOW for your location showing map with azimuth and elevation plus other details from your city location.







IsCatalogInMostPopularTable: catalog: 54244, numindb: 3
Update: records affected: 1



GetName: 54244 2022-153B

Hit Count: updated at: Sun, 04 Dec 2022 21:42:07 GMT